Home > Weather > Anchorage > Past weeks

Flag for USA Past Weather in Anchorage, Alaska, USA — Yesterday and Last 2 Weeks

Now
55 °F

Passing clouds.


Feels Like: 54 °F
Forecast: 51 / 64 °F
Wind: 5 mph from South

Location: Lake Hood Seaplane

Current Time: May 29, 2016 at 3:39:04 AM

Latest Report: May 29, 2016 at 2:53 AM


Visibility: 10 mi

Pressure: 29.98 "Hg

Humidity: 62%

Dew Point: 42 °F

Location of AnchorageLocation

Past Weather in Anchorage — Graph

°F

Anchorage Temperature Yesterday

Maximum temperature yesterday: 71 °F (at 3:53 PM)
Minimum temperature yesterday: 53 °F (at 5:53 AM)
Average temperature yesterday: 62 °F

High & Low Weather Summary for the Past Weeks

 TemperatureHumidityPressure
High72 °F (May 14, 6:53 PM)96% (May 21, 6:53 AM)30.23 "Hg (May 21, 6:53 AM)
Low45 °F (May 22, 5:53 AM)18% (May 15, 7:53 PM)29.64 "Hg (May 17, 3:53 PM)
Average56 °F55%29.97 "Hg
* Reported May 14 1:53 AM — May 29 1:53 AM, Anchorage, Weather by CustomWeather, © 2016

Note: Actual official high and low records may vary slightly from our data, if they occured in-between our weather recording intervals... More about our weather records

Advertising

Anchorage Weather History for the Previous 24 Hours

Scroll right to see more
 ConditionsComfort  
Time TempWeatherWind HumidityBarometerVisibility
1:53 AM
Sun, May 29
57 °FPartly cloudy.6 mph67%29.98 "Hg10 mi
12:53 AM60 °FPassing clouds.5 mph56%29.97 "Hg10 mi
11:53 PM
Sat, May 28
64 °FOvercast.6 mph41%29.96 "Hg10 mi
10:53 PM63 °FOvercast.5 mph47%29.96 "Hg10 mi
9:53 PM64 °FPartly sunny.3 mph43%29.96 "Hg10 mi
8:53 PM66 °FSunny.3 mph37%29.96 "Hg10 mi
7:53 PM68 °FSunny.8 mph39%29.96 "Hg10 mi
6:53 PM68 °FSunny.7 mph35%29.97 "Hg10 mi
5:53 PM70 °FSunny.5 mph32%29.97 "Hg10 mi
4:53 PM71 °FSunny.6 mph31%29.98 "Hg10 mi
3:53 PM71 °FSunny.5 mph31%29.99 "Hg10 mi
2:53 PM66 °FPartly sunny.8 mph37%30.00 "Hg10 mi
1:53 PM65 °FPassing clouds.7 mph37%30.02 "Hg10 mi
12:53 PM64 °FPartly sunny.8 mph37%30.03 "Hg10 mi
11:53 AM61 °FOvercast.7 mph42%30.03 "Hg10 mi
10:53 AM61 °FPassing clouds.6 mph42%30.04 "Hg10 mi
9:53 AM59 °FSunny.7 mph42%30.05 "Hg10 mi
8:53 AM59 °FSunny.3 mph51%30.05 "Hg10 mi
7:53 AM58 °FSunny.3 mph43%30.05 "Hg10 mi
6:53 AM56 °FSunny.No wind60%30.05 "Hg10 mi
5:53 AM53 °FSunny.3 mph69%30.05 "Hg10 mi
4:53 AM54 °FClear.3 mph64%30.05 "Hg10 mi
3:53 AM54 °FClear.3 mph67%30.05 "Hg10 mi
Weather by CustomWeather, © 2016

See weather overviewHow to use our weather pages